Theta_e
304 297 295 294 297 299 300 300 300 299 300 298 297 295 295 296 297 302 302 301 305 300 298 297 297 298 299 300 302 303 303 299 297 298 298 299 299 300 299 302 306 308 310 313 316 318 320 324 325 325 325 325 325 326 327 326 324 323 322 321 320 322 323 324 323 322 323 322 322 323 322 322 323 324 324 324 324 323 324 323 322 325 326 326 325 325
303 295 295 298 299 300 301 301 300 300 300 299 297 295 295 296 295 301 303 301 303 301 296 298 297 297 299 300 301 301 300 300 301 300 299 299 299 300 300 299 304 308 309 311 311 315 318 321 323 324 324 323 324 325 326 326 326 324 323 321 321 322 322 323 324 322 322 324 323 323 322 322 322 322 322 322 322 322 323 323 322 323 326 326 325 324
295 294 298 300 301 300 300 300 300 300 298 298 296 296 295 296 299 302 297 300 300 300 294 295 296 297 300 301 302 302 302 303 303 303 303 302 300 300 300 301 301 305 307 309 311 313 318 319 322 323 324 325 326 326 326 327 327 326 324 322 321 322 322 322 323 323 322 323 324 323 322 322 320 323 324 324 323 322 322 323 323 323 326 326 325 325
291 295 300 301 301 299 298 299 299 299 299 297 296 294 294 298 297 295 296 297 298 298 292 293 293 295 298 299 299 302 302 304 304 304 304 304 303 302 302 302 302 302 305 306 309 311 315 318 320 323 323 324 325 325 326 326 327 327 326 325 323 322 322 322 322 321 323 322 323 323 322 322 322 321 321 322 322 321 323 323 325 324 325 326 325 325
295 298 302 301 300 300 297 298 298 297 296 297 298 295 295 297 300 300 295 296 297 297 297 294 291 292 295 295 298 301 302 302 303 302 303 304 305 306 305 304 303 303 303 306 307 309 312 316 319 322 323 324 324 325 325 326 327 328 327 327 326 324 323 323 321 321 322 321 319 320 318 318 319 319 320 320 321 322 322 324 325 325 325 326 325 325
297 300 302 299 299 299 298 296 298 297 294 296 299 300 300 302 302 303 298 296 294 292 295 293 286 289 290 295 297 300 297 299 302 302 303 303 303 303 302 302 302 303 303 304 307 309 311 315 318 321 322 323 324 324 326 327 327 328 328 328 328 327 325 324 323 322 322 321 320 319 318 317 317 318 319 319 319 321 321 323 327 327 327 327 326 326
299 300 301 298 298 298 298 297 299 299 295 294 296 303 304 303 303 302 297 298 289 288 294 295 290 286 287 290 292 294 294 296 298 299 302 304 304 304 304 304 303 303 302 302 304 308 310 313 317 320 321 323 323 324 326 326 327 327 328 328 328 328 327 327 326 324 322 322 322 321 320 319 318 318 320 322 322 323 324 325 325 328 328 328 328 327
300 298 299 299 298 297 296 295 299 300 296 293 300 304 303 302 301 301 300 297 293 294 295 293 290 284 286 292 295 296 295 295 296 297 298 301 303 303 304 305 305 305 305 304 303 305 309 312 315 318 321 322 323 324 325 325 326 326 326 327 328 328 327 328 328 326 324 323 323 322 321 320 320 320 320 322 323 324 324 326 326 327 328 329 329 329
301 297 297 296 297 296 295 298 301 302 297 296 302 304 302 302 301 298 297 292 291 291 287 287 290 286 284 287 294 296 294 295 296 298 298 299 301 302 303 305 305 306 307 306 304 304 307 310 314 318 320 322 323 324 323 324 325 326 326 326 327 327 327 327 327 326 326 325 325 324 323 322 322 323 322 323 324 324 324 325 326 327 328 329 330 330
301 301 300 300 297 295 298 300 301 302 297 301 305 304 300 298 297 297 291 292 289 288 287 287 290 286 289 287 291 292 291 293 295 297 299 300 300 301 302 303 305 305 306 307 306 305 306 309 312 316 319 321 322 323 323 324 325 325 325 325 325 326 327 326 326 326 327 326 324 325 324 323 323 323 323 323 324 324 325 325 325 326 327 327 328 330
301 305 305 301 298 300 300 301 303 303 303 304 303 300 296 294 292 291 291 288 289 286 290 291 291 289 287 286 290 290 291 294 296 296 298 299 300 301 302 303 304 304 304 305 305 305 305 308 310 312 316 319 321 322 322 322 323 323 324 324 323 325 326 326 326 325 326 326 325 325 325 325 324 324 323 322 323 324 324 325 325 326 327 327 328 328
301 302 302 302 305 304 304 300 304 304 303 302 295 294 295 290 290 288 287 288 287 286 289 291 290 290 285 285 289 294 293 295 296 295 296 297 300 301 302 303 304 304 304 304 304 304 303 303 304 305 311 315 318 320 320 321 321 322 323 323 323 324 324 325 325 325 325 326 325 325 325 325 325 324 324 323 324 325 324 325 325 326 326 327 327 327
296 299 303 304 305 305 301 300 301 301 301 299 296 296 291 285 288 284 286 284 285 286 285 286 290 286 287 292 290 293 295 297 296 298 298 298 297 298 301 303 304 302 303 303 303 304 304 303 304 303 306 311 315 317 319 320 321 321 322 322 322 322 323 324 325 325 325 325 325 325 325 325 325 325 324 324 324 324 325 325 325 324 325 326 326 327
293 300 302 300 303 305 304 296 293 292 298 297 294 292 289 284 282 282 284 286 284 286 285 287 288 286 290 291 297 297 299 300 300 299 298 297 298 298 297 298 300 301 301 303 304 304 303 304 304 304 304 306 312 315 317 319 319 321 321 321 321 322 323 324 324 324 324 325 326 326 325 325 325 325 325 324 324 324 325 325 325 324 325 325 326 327
286 287 295 299 295 305 303 302 300 297 297 297 299 296 291 290 284 282 284 280 283 282 283 287 285 282 284 286 290 298 301 302 301 300 300 299 299 299 298 296 297 298 297 299 299 301 302 303 303 304 304 304 306 312 315 317 318 319 320 320 320 321 321 322 323 324 324 325 325 326 326 325 325 325 324 325 325 324 324 324 324 325 325 325 325 326
289 289 296 304 301 305 301 304 305 301 297 298 297 298 292 289 289 287 283 284 281 276 278 279 285 284 288 291 293 294 293 296 298 299 298 297 297 296 297 299 299 297 297 297 297 298 298 299 299 300 301 302 302 306 312 315 317 317 319 319 320 321 321 321 321 323 324 324 325 325 325 326 325 323 324 324 323 324 325 324 324 324 324 325 325 325
288 286 298 300 301 303 302 303 303 304 288 295 296 290 293 296 289 284 285 283 281 278 278 280 282 286 287 293 296 296 293 294 295 295 295 295 294 292 294 295 295 296 296 296 297 298 298 296 297 300 300 301 301 301 306 312 314 316 317 318 319 319 320 320 320 322 323 324 324 324 325 326 325 324 323 323 323 324 324 324 324 324 324 324 324 324
288 288 295 297 295 301 301 304 303 304 302 298 290 294 297 297 295 288 281 280 279 276 279 283 282 284 281 283 290 294 295 296 296 293 293 293 294 293 294 294 295 296 296 297 296 296 297 298 299 299 299 299 301 301 302 305 311 315 317 317 318 318 318 319 320 321 322 323 323 323 324 325 325 325 324 324 323 323 322 322 323 322 322 323 323 322
296 286 290 292 296 297 301 302 298 300 300 298 296 301 294 286 286 287 286 279 276 278 277 277 283 282 285 286 287 289 291 294 295 296 294 294 294 294 294 295 294 293 294 295 296 296 296 295 296 296 297 297 297 298 299 300 301 305 309 314 317 318 319 319 320 320 321 322 323 323 323 324 324 325 325 324 323 322 321 321 322 322 322 320 320 319
295 286 286 292 293 294 298 298 289 294 300 298 300 297 297 292 289 287 287 282 281 277 275 276 280 280 287 288 290 290 291 292 293 293 295 296 297 297 297 297 295 295 296 297 297 296 296 296 295 295 296 296 297 296 297 297 297 299 302 305 309 310 310 311 314 316 318 320 321 322 322 322 323 324 324 323 322 321 321 322 321 321 320 320 317 320
291 294 284 288 292 295 289 294 292 295 291 290 294 292 293 290 291 290 290 282 277 275 275 275 276 279 284 289 291 293 294 295 296 297 296 296 296 296 296 297 297 295 295 295 295 296 296 296 296 296 295 295 296 296 297 297 298 297 298 299 301 305 306 308 311 313 316 317 318 318 319 320 320 321 322 321 321 321 321 321 317 320 321 316 318 319
289 288 285 286 287 288 292 299 299 298 297 295 294 292 293 290 286 285 283 288 281 279 275 276 279 284 285 294 296 296 296 297 297 297 295 294 295 295 295 294 294 295 294 295 294 294 294 294 295 295 294 294 296 297 297 296 297 297 298 300 299 299 302 304 305 307 310 309 312 314 316 316 314 317 317 317 318 318 319 319 317 317 313 316 317 317
296 289 286 285 287 290 293 293 293 297 299 298 297 294 296 291 289 287 282 283 284 286 285 278 277 285 292 292 294 295 295 296 297 295 296 295 294 293 294 294 294 293 295 294 293 293 293 292 293 294 294 294 294 294 293 292 295 297 296 296 297 299 300 298 299 300 301 304 306 307 308 309 311 312 312 314 314 314 315 314 312 313 315 315 314 314
295 286 285 285 287 289 294 295 295 295 297 294 295 295 295 291 293 291 289 288 286 285 284 283 281 286 291 291 288 290 289 292 291 295 296 295 293 293 293 293 293 293 293 292 290 290 291 291 291 292 293 293 292 291 293 293 293 293 294 295 295 296 297 297 298 298 301 302 303 302 300 303 302 303 305 309 310 310 307 310 311 311 313 313 312 313
290 286 287 283 282 284 286 290 291 292 294 293 292 295 296 296 295 292 287 286 287 287 287 284 279 286 292 289 287 287 288 289 290 291 291 293 291 292 292 292 292 292 292 293 293 293 292 291 292 295 295 294 293 291 292 293 294 293 294 293 295 295 294 294 295 297 298 299 299 300 301 300 299 302 303 306 305 306 304 305 308 308 312 310 311 313
293 288 286 282 279 278 277 279 281 286 289 293 295 295 295 295 293 290 287 285 284 287 287 285 284 290 291 291 290 288 288 290 289 289 290 290 292 292 291 292 292 292 293 292 291 291 293 294 293 292 292 293 293 293 294 294 294 294 293 295 293 294 292 293 291 293 297 296 298 299 299 299 300 301 300 299 297 299 299 299 302 307 307 311 313 312
289 289 289 288 286 285 287 287 291 294 291 288 291 293 293 294 295 293 289 287 284 285 284 287 288 290 290 290 290 291 289 291 292 290 291 292 291 290 290 291 292 293 293 293 293 294 292 291 293 293 293 294 293 291 293 293 295 293 293 294 293 293 294 292 293 295 297 297 298 299 299 300 301 302 302 300 299 297 298 300 301 304 307 306 310 310
287 286 288 289 288 290 290 287 293 295 291 292 292 292 293 292 292 291 289 287 291 287 282 286 289 288 290 293 292 291 290 290 291 291 290 290 292 293 293 291 293 292 292 292 292 293 294 295 293 292 293 292 294 293 292 292 293 294 294 294 292 290 291 292 292 294 296 297 297 298 299 298 297 298 300 300 301 301 300 300 300 303 304 302 307 307
287 287 289 289 288 291 291 291 294 294 294 294 294 293 292 293 292 289 290 293 292 287 285 290 290 289 291 294 296 296 294 292 292 292 291 292 291 291 292 292 293 294 294 293 293 294 294 294 294 293 292 293 291 292 291 291 292 290 290 291 291 290 293 290 292 294 296 297 298 298 296 296 295 297 298 298 299 299 300 299 298 297 297 298 300 303
291 286 289 289 288 289 290 291 293 293 292 293 293 293 294 293 292 293 293 294 293 290 292 292 291 291 294 295 296 295 297 295 292 290 290 290 290 290 291 292 293 294 294 294 293 294 294 295 294 293 293 291 293 293 292 293 293 294 294 294 292 292 291 292 295 296 297 297 298 296 295 296 295 296 296 297 297 297 296 296 296 294 295 296 296 296
293 286 291 288 286 286 289 291 290 291 292 290 292 293 294 294 294 294 294 294 294 293 293 293 291 291 296 298 295 294 297 296 295 294 293 292 291 291 291 292 293 294 294 294 294 294 295 295 295 293 291 293 294 294 295 295 295 293 293 294 294 294 294 295 297 297 297 297 296 295 296 295 293 292 293 293 294 293 294 295 292 292 293 293 293 294
293 286 290 287 284 285 288 288 288 289 289 289 290 291 292 292 290 292 291 294 292 290 292 291 289 290 296 299 294 295 292 294 294 293 292 292 291 292 291 292 293 294 294 294 295 294 293 295 296 295 295 294 294 294 294 294 294 293 294 294 295 296 296 297 297 297 296 295 294 294 295 293 292 291 291 290 291 291 291 290 291 292 292 291 291 291
289 286 286 285 283 284 288 288 287 287 286 285 286 291 293 293 294 295 295 296 294 295 290 288 289 296 296 295 296 297 295 294 294 295 295 295 293 293 293 293 294 294 295 295 295 294 294 295 297 297 297 295 295 295 295 295 293 294 294 294 295 295 296 297 297 296 296 293 293 292 290 290 291 291 289 289 289 288 288 289 290 290 290 290 290 289
289 286 285 287 283 285 287 287 287 284 278 280 293 296 296 293 293 291 292 294 295 296 294 296 296 298 296 295 293 294 294 297 297 297 300 300 298 294 293 295 296 296 296 296 296 295 296 296 296 297 297 297 297 297 295 294 295 295 293 293 292 294 296 296 295 295 294 292 291 291 290 289 290 290 289 288 288 288 288 288 289 288 289 288 288 289
285 286 285 286 284 284 285 286 282 277 279 292 295 297 298 297 296 294 295 296 296 297 297 296 296 297 297 296 295 295 295 297 298 298 298 297 298 297 295 295 295 296 296 296 295 294 295 296 297 296 295 294 294 292 292 292 292 289 289 290 292 293 295 295 295 294 293 291 290 290 289 289 289 289 288 287 287 288 288 288 288 288 288 288 289 289
285 285 285 285 285 286 283 283 277 278 288 294 295 297 298 298 297 295 293 295 297 297 297 296 297 298 298 298 298 296 294 295 295 296 299 299 296 297 296 296 296 296 296 297 296 296 295 295 296 297 297 295 292 291 294 295 292 291 291 289 291 291 293 293 293 293 291 291 290 290 289 289 289 288 287 287 287 287 288 287 288 288 288 288 288 288
290 286 285 283 286 281 283 283 283 288 286 288 289 291 294 292 293 292 287 292 297 298 298 297 297 298 299 299 299 296 292 292 292 298 297 298 298 297 297 298 298 298 298 297 297 297 297 296 297 297 295 292 294 294 294 292 292 292 289 289 290 291 291 291 292 292 291 290 290 289 289 289 289 288 287 287 287 287 287 287 287 287 287 288 288 288
292 286 286 283 282 285 283 281 283 282 280 285 291 293 299 299 299 298 294 291 297 298 299 298 297 298 298 298 298 294 293 291 293 296 298 296 297 298 298 301 302 300 298 296 295 295 295 295 295 292 294 293 293 295 294 290 292 291 290 290 289 290 290 291 291 291 291 291 290 289 289 289 289 288 287 287 287 287 287 287 287 287 287 288 287 288
290 290 287 284 282 284 282 280 280 279 283 291 292 294 297 298 296 294 289 287 295 297 299 299 298 298 298 297 296 293 292 290 292 297 296 299 297 298 299 299 300 300 298 296 296 296 294 294 294 293 291 292 293 292 289 290 290 291 290 289 289 290 290 290 291 291 291 290 290 289 289 289 289 288 287 287 287 287 287 287 287 287 287 287 287 287
285 285 285 282 280 280 280 280 279 283 284 288 290 293 296 296 298 293 282 284 296 297 298 298 298 298 298 298 295 295 294 291 293 297 296 299 299 302 301 301 300 299 297 295 295 296 296 292 290 289 291 292 295 291 288 289 290 290 290 289 289 289 290 290 290 290 290 290 289 289 289 289 288 287 287 287 287 287 287 286 286 286 286 286 287 286
282 283 284 279 280 280 280 279 283 285 288 291 289 291 295 298 295 285 281 289 295 298 298 299 298 299 298 297 296 294 297 299 300 294 297 296 299 299 300 301 301 301 299 296 295 291 291 291 294 295 293 294 291 288 289 289 290 289 288 288 288 289 290 290 290 291 290 290 289 289 289 288 288 287 287 287 287 286 286 286 286 286 286 286 286 286
282 283 283 283 279 278 279 279 279 285 291 293 289 292 296 293 284 284 295 296 293 295 297 298 298 298 298 297 297 298 299 301 301 295 292 296 298 298 296 297 296 294 296 295 293 291 292 290 290 289 288 286 287 288 288 289 290 289 287 287 288 289 289 290 291 290 290 290 289 288 288 287 287 287 287 286 286 286 286 286 286 286 286 286 286 285
281 281 279 279 282 283 282 279 279 277 287 295 291 289 294 289 290 297 297 292 292 291 295 294 297 298 297 297 298 299 299 299 298 299 296 291 294 294 293 294 294 295 295 291 289 289 292 290 289 290 289 286 286 288 288 289 289 287 287 288 287 287 289 290 290 290 290 289 288 288 287 287 287 287 287 286 287 286 286 286 286 286 286 286 285 285
287 280 280 282 285 278 279 278 279 287 292 294 294 289 292 296 292 294 293 293 286 287 292 292 294 296 297 297 297 297 298 298 298 298 296 294 293 291 291 293 294 294 294 293 293 290 289 291 289 287 284 285 286 287 288 289 289 287 287 288 284 287 288 289 290 290 289 288 288 287 287 287 287 287 287 286 286 286 286 285 285 285 286 286 286 285
287 283 286 281 287 284 282 285 290 292 289 294 297 297 296 298 291 290 296 296 296 292 289 294 294 294 295 296 297 297 296 297 298 298 295 295 296 293 291 291 292 293 292 291 290 286 288 290 287 286 284 284 285 286 287 288 289 287 287 285 285 287 288 289 288 288 288 287 287 287 287 287 286 286 286 286 286 286 285 285 285 285 284 285 285 285
289 290 287 287 284 288 289 290 288 290 291 293 293 292 293 298 298 294 290 290 290 295 292 294 293 293 293 295 295 296 296 297 296 292 292 293 293 291 291 291 290 289 289 287 284 285 286 286 286 286 286 284 283 285 286 287 288 288 287 284 285 287 288 288 288 287 287 287 287 286 286 286 286 286 286 286 286 286 286 285 285 285 284 285 284 284
285 286 287 285 285 287 282 289 290 291 293 294 295 292 289 289 292 294 291 290 288 288 288 289 291 292 293 293 295 296 296 295 293 292 292 293 293 291 289 290 290 289 288 288 287 285 285 285 286 286 286 286 283 284 283 283 283 284 284 285 285 286 287 288 287 287 286 286 286 286 286 286 286 286 286 286 286 286 285 285 285 284 284 284 284 284
283 288 287 287 287 286 285 289 292 294 294 295 294 291 292 295 295 292 291 289 286 285 286 289 288 290 290 292 292 293 294 292 292 292 291 291 292 290 289 289 289 287 286 287 286 286 286 287 287 286 285 286 283 283 282 282 282 282 284 284 285 286 287 287 287 287 286 286 286 286 286 286 283 284 285 285 285 285 284 285 285 284 284 284 284 284
284 289 285 287 286 288 290 291 290 291 291 293 294 294 296 294 289 288 286 286 285 287 288 286 286 290 290 293 293 292 293 291 291 292 292 291 290 289 289 289 289 288 286 284 284 286 287 286 286 285 285 284 282 282 281 280 281 282 283 283 284 286 286 286 285 285 285 285 285 285 285 285 285 285 284 284 284 284 284 284 284 284 284 284 285 285
285 285 285 288 285 285 286 288 290 286 287 292 294 296 294 287 289 290 287 287 288 288 287 287 289 287 287 289 290 290 292 292 289 289 291 291 291 290 289 288 287 286 284 284 285 285 284 285 285 284 283 282 281 281 281 280 280 281 282 283 283 285 284 284 284 284 283 283 284 283 283 283 283 283 283 283 282 281 280 282 284 284 284 282 283 284
285 286 288 285 285 285 290 292 293 293 293 293 291 291 293 294 295 295 293 292 292 291 289 288 289 289 288 288 288 290 291 292 290 288 289 289 289 289 289 287 286 285 284 282 283 282 283 283 282 283 282 281 280 280 280 280 279 280 281 282 283 284 283 283 282 282 282 282 282 282 282 282 281 281 282 282 281 281 279 278 279 283 284 283 282 283
Wind_Speed
6 10 12 16 18 18 13 10 9 3 8 7 6 6 9 9 6 5 6 4 10 7 12 10 10 12 13 12 12 11 7 7 9 9 9 9 8 9 8 8 11 13 15 10 12 12 12 13 12 10 9 10 10 11 12 12 12 14 14 12 14 12 11 10 10 10 10 10 8 8 11 12 9 9 8 8 8 8 8 8 8 10 9 10 10 10
6 11 16 19 16 13 13 9 6 6 4 9 7 8 9 10 11 7 8 5 7 9 5 9 10 13 14 10 10 9 7 12 13 12 12 11 10 10 11 11 11 14 7 7 8 8 9 9 10 11 10 10 12 12 14 16 14 13 13 15 14 11 12 13 13 12 11 10 12 11 11 9 9 9 9 9 8 9 8 9 9 9 10 11 11 11
10 17 21 19 8 6 6 7 8 10 6 4 7 7 6 9 6 5 3 4 4 5 6 5 10 12 14 12 8 8 11 11 12 13 15 14 13 12 12 13 13 9 10 10 11 10 11 12 12 12 12 12 15 14 15 15 14 12 13 13 12 12 12 12 12 12 13 11 9 10 7 10 7 7 8 9 9 9 9 10 11 11 11 12 11 11
13 17 22 11 9 10 8 9 8 7 7 7 3 4 9 3 7 8 2 1 2 6 2 4 6 8 7 8 9 10 10 11 9 10 13 12 14 15 15 14 13 12 11 10 11 12 12 13 13 13 13 13 12 12 12 13 15 13 13 13 14 13 13 12 13 13 12 11 9 8 7 9 9 9 8 8 7 8 9 12 11 10 11 11 10 11
21 14 12 12 11 13 14 13 13 10 11 8 6 3 3 5 7 2 3 1 2 4 0 1 6 8 8 11 11 11 12 10 10 10 10 11 13 14 12 12 13 14 12 13 12 12 12 12 14 15 15 13 14 14 14 14 14 12 16 15 15 13 13 12 12 13 10 8 7 7 4 4 5 2 6 7 8 11 11 10 11 12 10 11 11 11
15 5 15 17 17 16 13 12 15 13 11 10 11 9 4 3 4 0 1 5 1 4 1 3 4 10 7 16 16 10 2 8 13 12 14 13 11 9 10 13 10 10 11 15 15 15 14 15 14 13 14 14 15 15 15 15 16 15 14 14 14 12 12 13 13 13 11 11 11 10 9 9 10 11 10 14 15 12 12 14 9 8 11 11 11 11
10 8 19 17 12 12 14 14 16 14 12 10 13 12 8 3 4 2 3 2 4 6 2 2 9 10 1 3 5 6 3 8 7 7 15 15 14 12 13 12 11 13 11 9 10 12 13 14 14 15 16 17 17 16 15 14 15 16 14 14 15 14 13 13 13 14 12 12 12 14 15 14 14 14 13 11 10 11 11 9 11 11 10 12 13 12
9 12 14 14 17 17 15 14 14 18 12 13 5 10 6 6 7 6 4 6 3 1 3 2 2 7 10 9 5 8 9 9 10 11 11 12 13 15 15 13 12 13 12 13 13 13 15 16 16 18 19 17 18 17 14 14 14 16 16 15 16 14 13 13 13 14 14 14 13 13 14 13 13 15 14 12 12 10 9 11 12 10 11 12 12 12
24 19 20 20 18 16 18 18 15 18 12 4 9 11 10 5 2 1 0 3 3 1 6 4 0 3 7 5 6 9 10 11 15 16 12 11 13 13 14 15 15 16 16 14 12 14 15 16 17 16 16 16 15 13 14 14 15 16 16 15 14 15 13 12 14 15 15 14 14 13 12 13 13 13 10 7 8 9 9 11 10 11 11 11 12 12
7 17 20 21 17 17 12 9 10 16 14 1 9 8 7 8 4 2 2 2 2 1 11 7 6 5 15 4 3 1 4 9 12 14 16 18 14 11 12 13 14 13 12 11 13 13 14 15 14 13 12 11 13 13 11 12 12 13 13 14 15 15 14 13 14 15 16 15 13 12 13 15 14 10 8 6 9 10 9 11 12 11 10 10 10 12
3 10 10 11 14 11 11 8 10 16 4 10 10 11 4 6 3 2 3 2 1 6 15 8 10 8 12 5 9 6 7 9 12 8 9 9 10 11 12 12 11 11 10 10 10 10 10 11 13 11 13 14 12 10 10 11 11 9 11 13 15 16 14 13 14 15 16 15 14 14 15 16 15 13 10 8 9 9 9 11 12 11 11 9 11 9
6 8 10 7 12 7 11 9 9 9 13 12 3 6 8 1 5 2 1 2 6 12 4 12 10 10 12 3 5 6 2 6 9 9 8 8 11 12 11 12 12 10 9 9 8 9 9 8 8 7 10 11 11 10 11 11 10 11 11 12 15 15 15 13 14 14 15 14 15 15 15 16 15 13 11 13 13 12 13 12 11 10 9 9 9 9
7 11 8 11 10 15 13 12 8 10 12 10 10 11 11 4 5 7 3 9 12 12 0 1 11 2 17 11 2 4 9 8 5 7 10 9 8 9 9 11 9 6 7 9 10 10 9 10 11 10 11 9 10 12 13 14 13 13 13 14 16 17 16 15 14 15 16 14 15 16 16 15 13 12 12 12 12 10 11 10 10 10 11 10 10 11
6 6 14 6 7 11 15 16 7 8 12 14 15 14 13 8 10 11 11 2 3 1 2 7 1 6 5 8 13 14 14 12 12 11 10 7 7 6 5 6 7 7 7 9 10 10 10 11 11 12 12 11 11 13 14 13 13 12 12 14 15 17 15 14 13 15 15 16 16 15 15 14 12 12 12 12 12 11 10 10 11 11 11 12 13 12
10 10 13 16 10 12 19 18 21 16 19 19 14 18 14 13 7 13 8 12 11 5 1 2 5 8 6 6 2 15 19 17 10 5 8 6 7 9 8 5 4 4 5 6 6 8 10 11 11 11 11 10 10 11 12 11 12 11 12 12 14 14 13 13 15 14 15 14 15 14 14 13 11 12 12 12 11 11 11 10 11 11 10 11 11 11
12 3 5 19 2 22 20 18 18 14 9 10 9 6 10 12 2 8 4 6 4 2 2 2 8 4 8 4 4 4 5 8 12 15 13 12 8 6 7 8 7 5 5 4 6 7 7 7 6 6 7 8 8 9 9 11 11 11 12 12 14 16 15 13 13 13 14 15 13 13 14 15 14 12 11 11 11 11 11 11 12 12 11 11 9 9
2 7 3 3 5 18 17 11 11 18 15 10 7 13 8 4 6 5 4 0 4 2 9 3 7 7 5 10 13 11 6 11 9 14 11 9 6 3 5 6 7 7 6 5 6 6 6 5 5 8 8 8 8 7 10 11 11 12 12 12 13 13 11 11 13 14 13 13 12 13 15 13 13 15 15 14 14 13 11 10 11 11 12 10 10 10
1 2 2 4 9 6 5 12 13 16 2 11 11 10 4 2 2 5 6 1 1 5 6 8 11 9 2 13 2 15 14 13 14 5 2 5 7 6 7 7 8 8 8 7 6 5 6 6 7 6 6 7 8 9 9 10 10 11 12 13 13 12 12 11 12 13 13 13 13 12 13 14 15 15 15 14 14 12 10 11 10 9 10 12 10 10
4 2 4 3 3 4 2 7 4 2 4 11 15 14 15 6 6 3 4 8 5 9 7 3 10 8 11 14 1 2 12 14 12 12 7 6 7 8 8 9 7 6 5 5 6 6 6 6 6 6 6 5 5 6 7 7 6 6 6 8 11 14 14 13 11 9 10 10 10 11 14 14 14 13 13 13 12 10 11 12 12 11 11 8 9 10
1 3 3 1 3 3 3 10 15 8 4 2 6 10 2 3 6 10 9 1 5 8 4 7 7 10 11 9 7 6 8 12 10 10 9 12 12 10 9 9 8 8 7 6 6 6 6 6 6 6 6 6 6 6 5 5 4 6 7 7 8 7 6 6 8 10 12 12 12 12 11 12 13 13 12 11 11 10 12 12 11 11 10 11 8 10
3 1 4 1 3 4 9 6 13 16 13 5 12 11 6 4 2 3 2 6 5 5 6 4 9 7 8 6 9 13 11 11 10 13 10 10 9 10 9 9 9 7 6 5 5 5 4 4 4 3 3 3 2 1 2 3 5 5 4 5 6 8 9 10 11 10 11 11 11 11 12 12 11 11 10 9 10 11 12 11 9 10 10 6 10 10
3 3 4 1 3 6 4 7 10 16 14 12 14 16 17 12 9 13 9 2 2 3 5 5 16 8 6 6 12 13 13 14 13 12 7 7 8 8 9 9 6 5 5 5 5 5 5 4 3 1 0 0 0 1 2 2 1 4 6 7 6 6 7 8 8 7 6 5 5 7 9 8 6 7 7 9 9 10 10 9 8 7 5 9 9 9
6 3 4 6 4 5 1 2 2 2 10 9 9 9 10 5 6 8 10 6 1 6 1 2 3 13 6 6 8 9 8 10 10 7 8 6 6 6 5 5 5 6 6 5 5 4 4 4 4 5 5 5 5 5 4 4 4 5 5 4 4 5 6 4 4 2 3 4 5 5 5 5 5 6 6 8 8 9 9 8 7 7 9 10 9 9
9 2 5 2 4 5 4 3 1 3 3 1 3 1 8 10 11 11 10 6 8 3 7 5 8 14 3 4 5 7 7 8 6 8 9 6 5 4 6 5 5 3 4 4 4 4 4 4 4 3 5 5 5 5 4 4 4 4 4 4 3 4 4 3 4 3 1 2 3 3 5 5 5 5 6 7 8 8 7 8 8 8 9 10 8 10
7 4 5 4 2 2 4 3 2 2 2 5 6 6 10 10 11 4 5 2 8 13 14 10 13 17 2 5 3 4 5 5 5 5 8 8 5 6 6 5 5 5 5 5 6 6 5 3 5 6 5 5 5 4 4 4 4 4 4 4 4 4 4 4 3 3 3 2 4 2 3 4 4 6 7 8 7 8 8 7 7 7 8 8 8 9
8 6 10 8 10 11 8 8 11 9 12 8 11 15 13 17 17 11 13 6 13 11 14 10 12 16 1 1 3 5 6 5 3 2 2 4 7 8 6 6 6 6 7 6 5 3 6 8 6 5 6 5 6 6 5 5 5 5 4 5 4 5 4 5 3 4 4 3 4 4 3 3 3 4 4 4 5 5 5 5 5 6 6 8 9 8
4 5 9 8 12 13 10 2 3 1 3 8 9 14 16 17 20 15 6 9 14 6 10 12 15 18 12 8 6 7 4 6 5 3 4 4 4 4 3 6 7 8 7 7 7 6 3 4 7 7 6 6 5 5 6 5 6 5 5 5 5 5 6 5 4 4 4 4 4 4 4 3 3 3 3 3 4 3 3 3 3 4 5 5 6 8
3 5 14 15 15 10 1 2 3 13 18 20 22 23 19 16 12 15 14 18 14 12 13 4 12 17 24 21 10 6 7 6 7 7 6 4 4 6 8 5 6 5 6 5 4 5 7 7 5 5 6 5 6 5 5 5 6 6 6 6 5 4 4 4 4 3 3 4 4 4 4 4 4 3 4 4 4 4 4 4 3 4 3 4 6 6
7 10 14 14 18 15 4 5 6 9 12 15 20 20 22 19 17 20 21 17 13 13 17 17 17 17 24 24 19 17 10 8 10 7 5 6 4 3 1 3 6 9 9 7 8 7 6 6 6 6 6 7 5 6 6 6 5 5 4 5 5 4 5 4 4 3 3 3 4 4 4 4 4 3 3 3 3 4 4 4 4 4 4 4 4 4
5 8 6 14 16 14 11 7 3 11 10 13 15 16 18 19 21 20 20 19 16 13 15 19 15 23 27 28 16 6 10 11 6 4 3 4 5 6 6 7 8 10 11 10 10 9 8 8 6 6 6 5 7 7 7 6 7 7 7 6 5 5 4 4 3 3 3 4 4 3 2 2 1 1 2 2 3 4 3 2 2 3 4 4 4 4
10 6 11 8 11 14 14 11 7 8 10 14 15 18 18 19 20 21 19 18 16 15 17 21 24 25 24 22 4 6 10 8 8 11 11 9 8 9 10 11 12 13 13 11 10 9 8 7 7 5 5 7 7 9 9 9 7 6 6 6 6 6 5 5 5 5 5 6 4 3 3 2 1 0 1 2 1 1 2 2 3 4 3 3 3 4
9 2 7 7 10 12 13 14 12 9 8 11 14 16 16 16 17 18 19 22 20 23 25 25 20 18 24 23 5 9 6 10 12 11 9 8 10 12 13 14 14 14 13 12 12 10 6 7 8 8 8 9 9 8 8 8 7 7 9 8 8 7 5 6 6 6 6 4 3 4 4 4 3 2 1 0 0 1 0 1 1 1 2 3 3 3
4 5 6 8 10 14 12 19 19 12 7 11 15 18 22 24 25 24 24 23 20 20 19 17 23 27 19 6 13 15 9 10 7 8 9 10 11 12 13 14 15 14 14 13 13 11 10 10 10 10 10 7 8 9 11 9 7 10 9 10 9 7 7 8 7 6 6 5 5 4 3 4 4 4 3 2 2 2 2 2 2 2 3 3 2 3
7 5 2 4 9 10 10 14 13 12 17 17 17 27 27 25 24 20 19 22 21 18 17 21 25 27 14 10 8 10 11 15 14 12 13 15 14 11 13 15 16 16 14 13 13 12 10 8 7 9 10 11 11 12 9 10 12 10 8 8 7 9 8 8 7 6 5 5 5 5 5 5 4 4 4 3 3 3 3 3 3 3 2 2 3 3
0 3 4 2 2 5 6 13 13 20 17 13 3 12 19 24 23 26 26 26 24 24 25 25 26 28 14 10 8 10 10 9 10 12 13 12 11 13 16 15 15 14 14 14 11 8 10 10 10 9 8 8 8 6 7 7 7 5 5 7 8 8 9 8 7 7 6 6 6 6 6 5 5 5 4 4 4 4 4 3 3 3 3 3 4 5
4 3 1 3 1 1 5 11 10 11 5 1 11 17 17 14 16 15 20 23 25 28 28 28 29 26 17 19 18 8 5 7 7 12 15 13 14 15 15 15 16 15 15 13 12 12 11 10 12 12 12 8 5 6 8 10 8 8 7 6 8 8 8 8 8 8 7 8 7 7 6 7 6 6 5 5 5 5 5 4 5 5 3 3 3 2
6 4 1 3 3 7 3 8 10 3 2 2 4 8 16 19 22 23 22 29 28 19 18 21 28 29 25 24 21 7 1 4 8 17 11 13 14 12 14 14 16 16 14 11 11 12 13 12 11 12 8 6 8 8 10 6 8 8 7 8 7 8 8 8 9 9 9 8 8 8 7 7 7 7 7 6 6 6 5 5 4 3 3 3 3 3
10 9 4 5 4 6 7 5 5 4 10 8 11 6 23 26 24 23 18 22 10 18 21 25 30 32 25 21 14 4 2 5 18 25 13 11 10 11 12 16 16 11 10 11 9 8 8 9 9 7 8 8 8 10 7 8 9 9 9 8 8 9 8 9 10 9 9 9 8 8 7 7 7 7 6 6 6 6 5 3 3 4 4 4 4 4
5 10 6 8 6 3 5 7 5 7 7 6 12 12 17 9 6 7 3 20 14 19 24 27 31 31 23 20 10 8 5 14 23 25 9 18 13 13 16 16 13 13 11 11 12 12 11 10 11 10 7 7 9 9 7 9 9 9 9 8 8 8 9 11 9 9 9 8 7 7 7 6 6 5 6 5 5 4 5 4 4 3 3 3 3 2
6 6 6 8 10 10 8 8 7 2 5 5 2 8 11 12 14 13 11 16 27 21 21 23 30 30 22 16 8 12 17 20 27 18 11 16 18 22 20 17 15 15 12 10 9 10 11 8 5 4 7 9 12 9 9 8 9 9 9 9 8 9 10 9 7 6 6 6 7 7 6 6 6 5 5 5 4 3 3 3 4 3 3 3 3 4
6 4 8 13 10 12 12 10 8 7 5 10 5 4 12 16 16 16 15 24 4 15 19 19 24 23 14 12 12 16 23 24 20 7 18 11 15 15 14 17 19 18 17 11 11 8 6 8 11 12 13 12 9 8 9 9 9 9 8 9 9 12 10 7 7 7 8 8 8 8 7 5 6 7 4 4 5 5 5 4 5 4 4 4 4 4
4 5 3 9 11 10 9 11 10 8 10 6 4 9 11 12 14 15 21 5 6 12 16 20 22 18 14 17 16 19 22 23 21 10 7 14 17 17 14 16 11 8 10 9 10 8 8 8 7 6 6 5 8 9 9 10 10 9 8 9 12 10 6 8 8 8 8 9 9 8 7 7 5 5 6 6 7 7 6 5 6 6 6 5 5 6
10 8 8 9 6 5 7 8 8 11 7 15 8 5 10 14 13 16 8 4 1 4 9 9 15 15 14 16 19 22 24 21 17 19 15 8 12 12 11 11 12 13 13 8 5 8 10 8 9 10 10 7 8 9 9 10 10 9 8 11 9 6 8 8 8 8 9 8 8 8 8 7 8 7 6 7 7 8 7 6 6 6 6 6 6 6
8 6 3 5 6 5 9 11 9 8 13 5 14 11 11 15 3 4 2 7 3 4 7 8 9 12 13 16 17 19 20 19 20 18 12 11 12 9 8 11 11 12 10 11 11 10 9 10 8 7 5 6 7 8 9 12 11 9 10 10 5 8 8 8 8 8 8 8 8 8 8 8 8 7 6 7 7 6 7 6 5 5 4 4 4 4
9 9 7 8 8 10 7 7 9 15 4 7 14 9 6 14 6 7 12 11 10 9 6 8 11 11 13 14 16 16 16 20 23 19 15 18 18 13 10 11 13 13 12 12 11 9 8 12 11 8 5 4 6 7 9 9 12 11 11 7 8 9 10 9 9 9 8 8 8 8 7 7 7 6 6 6 7 8 7 7 6 6 4 5 5 5
9 18 5 7 5 3 6 6 2 6 10 17 11 4 2 11 16 11 7 7 7 8 8 9 7 9 10 13 14 16 18 17 15 10 12 11 12 12 10 9 8 7 8 7 5 8 8 7 7 9 10 6 6 7 7 7 9 13 8 7 8 9 9 10 10 10 9 8 7 7 8 8 7 7 7 7 6 6 7 8 8 7 6 6 6 6
4 4 8 11 3 8 10 6 15 17 16 20 18 5 3 7 10 10 9 9 6 5 5 6 5 6 8 9 14 17 17 13 11 11 11 11 13 11 11 13 11 12 13 13 11 10 8 9 9 10 10 10 6 7 5 6 5 5 8 10 9 9 9 10 9 9 8 8 7 7 8 8 7 6 6 6 5 5 6 6 6 7 7 6 7 6
7 6 9 11 11 15 11 10 17 21 23 19 14 7 9 15 16 10 8 6 4 4 5 8 6 8 8 11 13 12 14 8 11 10 10 11 12 10 10 11 11 8 6 5 8 9 9 11 12 11 10 10 8 6 6 5 6 7 9 9 10 10 11 10 10 10 9 9 8 7 7 7 8 8 6 6 6 6 5 4 4 6 6 7 6 6
5 8 10 6 12 13 11 17 13 12 13 15 18 18 18 11 4 5 4 5 5 6 7 6 5 9 7 14 12 11 12 9 11 12 12 11 9 9 11 12 12 13 11 10 9 9 13 11 11 11 11 9 6 6 6 6 6 8 10 10 10 12 12 11 11 10 10 9 8 8 7 7 7 6 6 5 4 3 3 6 5 5 3 1 2 4
5 12 3 7 15 12 13 15 10 11 16 19 25 25 14 6 6 6 6 6 8 10 9 8 10 7 8 10 9 9 11 10 9 9 11 12 12 12 10 9 8 9 9 7 9 9 7 9 11 12 10 8 7 7 8 7 7 7 8 10 10 12 13 12 11 11 10 9 8 8 8 7 7 6 6 7 6 6 4 4 4 4 5 4 4 6
13 12 10 14 12 14 15 20 21 18 22 24 9 2 12 13 12 15 15 14 12 11 10 8 9 10 9 11 8 9 11 11 11 9 8 7 10 10 11 12 11 9 9 9 10 8 9 8 8 9 10 9 8 8 8 8 8 8 8 9 10 11 12 12 11 9 9 9 9 9 9 8 8 7 6 6 7 6 6 5 5 5 5 6 5 6
Wind_Direction
139 172 190 202 206 200 194 196 190 146 156 139 175 176 205 215 239 234 219 211 193 182 211 205 219 235 243 237 240 240 238 231 239 236 231 232 230 229 228 218 216 213 215 206 207 204 200 199 196 192 187 193 193 194 193 193 189 189 187 183 194 193 183 178 183 190 187 188 190 197 196 198 195 198 197 202 205 204 206 199 190 189 191 191 193 196
156 191 212 214 205 189 191 186 173 205 155 170 178 187 208 202 225 223 240 207 205 186 235 220 220 230 243 241 238 242 234 235 229 233 236 234 227 224 223 221 217 220 225 209 213 209 202 197 194 191 188 186 189 199 194 197 192 189 187 191 194 188 189 188 188 189 193 194 192 189 196 192 192 191 196 204 205 205 205 206 199 193 193 192 194 195
188 209 215 209 173 167 179 189 193 198 208 209 187 197 199 218 208 240 299 193 222 192 249 225 228 240 245 247 246 232 226 231 221 217 223 225 227 227 225 224 221 218 219 212 213 201 198 197 195 193 194 193 196 195 196 197 192 188 191 197 193 193 192 194 190 189 199 197 195 192 188 189 194 209 203 203 201 199 203 207 206 198 194 194 196 194
200 226 217 172 172 169 182 194 189 197 212 212 171 171 215 153 155 223 274 337 244 179 216 222 232 259 272 271 255 243 232 241 237 224 228 217 222 222 222 220 221 220 217 215 211 207 202 197 196 196 197 196 195 196 199 196 196 196 195 194 195 195 195 195 196 198 200 198 195 197 184 192 189 192 197 202 205 205 206 211 207 203 198 195 194 195
203 219 179 158 175 174 185 189 189 193 211 216 201 182 174 170 205 196 225 217 258 291 70 344 311 274 237 261 263 248 238 247 250 243 245 239 231 229 227 228 220 216 210 213 215 213 203 200 201 198 198 195 195 197 197 196 197 199 202 196 192 195 197 199 198 198 193 188 195 198 189 181 199 189 188 200 212 207 208 208 207 207 196 194 196 194
219 99 141 183 187 184 179 182 195 188 208 210 221 197 171 167 206 38 336 134 187 281 266 133 315 259 209 218 236 254 246 241 244 243 243 240 240 241 240 232 228 231 213 208 209 208 206 203 203 202 198 197 201 200 199 196 199 200 201 195 190 193 197 200 198 193 188 194 194 188 191 194 197 206 197 203 204 200 203 208 200 195 197 196 195 195
198 173 172 185 168 178 183 197 196 183 200 194 213 189 169 178 177 139 194 197 225 225 268 180 218 270 334 273 233 252 245 248 268 242 245 245 242 236 235 230 222 221 228 233 223 211 208 210 202 202 201 201 201 206 200 196 199 201 199 196 193 195 197 197 195 189 190 198 200 200 203 202 200 207 214 211 206 203 206 200 198 199 195 197 194 196
152 184 175 176 178 182 188 202 193 186 189 219 153 150 175 180 186 199 192 215 244 308 305 337 158 267 281 247 254 253 260 257 261 253 246 245 242 237 236 232 226 223 219 215 217 215 213 209 203 204 205 202 205 202 197 199 199 198 199 195 198 198 196 196 192 189 193 198 201 204 208 210 213 213 214 201 204 204 199 200 204 200 200 200 200 197
184 179 179 178 182 186 200 199 178 182 194 204 141 158 188 179 190 356 235 191 200 165 259 248 336 328 251 273 221 215 242 252 254 253 245 237 236 237 235 234 229 225 220 212 212 214 213 214 213 210 205 208 208 205 201 200 200 199 199 198 197 200 199 197 191 193 196 199 200 203 207 213 221 220 221 205 205 203 199 203 205 205 205 204 205 203
191 183 181 179 178 196 196 178 152 176 199 170 131 106 89 84 80 92 98 110 307 109 243 189 183 217 273 202 177 290 203 238 242 243 246 245 238 225 234 235 234 233 230 224 220 218 216 217 219 215 214 209 209 207 205 210 209 204 198 197 197 202 201 199 195 196 199 201 202 204 209 215 219 216 214 188 201 205 199 208 208 208 208 207 207 209
195 194 166 178 187 189 179 164 166 180 151 111 88 110 90 63 53 13 88 117 20 241 247 170 199 168 276 182 185 170 213 203 233 250 252 256 257 247 238 235 231 228 226 224 225 224 219 219 217 209 209 211 208 206 202 206 207 211 208 201 201 205 204 198 198 196 201 201 203 211 212 214 217 212 205 201 207 204 202 210 211 208 211 208 212 207
227 154 168 198 184 181 151 162 177 151 135 118 117 107 114 6 36 25 339 44 222 248 240 163 176 162 234 281 270 232 258 241 214 227 239 243 241 243 241 242 238 225 218 221 218 225 219 223 230 217 219 214 210 204 205 206 201 202 206 206 206 209 206 200 198 197 202 200 205 212 214 216 218 210 207 209 211 204 206 207 210 209 208 213 212 209
229 187 170 184 184 155 166 158 172 134 150 140 133 143 166 183 156 211 141 217 207 235 23 158 136 109 236 229 261 278 262 260 220 220 232 227 241 246 253 250 248 227 218 213 215 216 215 212 212 211 218 211 208 207 206 204 201 202 203 204 206 211 206 203 198 198 201 200 205 209 212 216 215 214 214 216 218 211 210 208 209 202 209 207 207 211
229 198 179 174 154 183 163 173 151 161 180 162 170 170 179 181 185 206 200 239 325 48 244 104 109 259 277 296 231 248 267 259 246 228 228 230 253 272 255 259 245 230 213 214 212 212 210 210 213 212 212 206 207 209 207 205 203 203 204 205 208 214 207 205 200 201 202 205 208 208 211 214 211 215 215 218 219 216 213 209 211 208 208 207 210 207
156 196 202 154 208 166 185 186 176 176 174 189 180 183 194 186 184 194 182 199 209 211 176 210 99 226 162 250 255 219 226 243 257 276 263 247 234 237 242 241 278 277 235 214 217 215 213 213 210 210 213 212 208 209 207 205 206 203 205 206 210 218 215 206 205 203 205 208 210 209 209 212 212 214 214 219 218 216 213 211 212 214 211 212 215 211
214 251 234 183 136 176 187 187 177 153 168 187 182 160 208 211 118 208 172 187 190 159 183 222 203 195 196 244 281 235 287 271 269 273 280 279 268 242 244 249 247 246 257 245 222 231 236 226 220 222 224 221 214 209 206 205 202 201 205 204 208 214 214 208 208 208 207 210 209 207 207 210 210 212 214 219 217 217 212 210 210 215 213 216 214 214
225 242 192 168 179 177 185 167 179 153 188 175 146 203 186 106 108 112 30 35 83 61 243 159 289 277 302 280 263 276 244 256 252 242 238 259 272 274 245 246 249 252 251 245 230 227 231 232 224 214 214 217 214 204 202 202 198 198 200 203 209 216 217 208 208 210 209 211 209 208 209 208 208 209 211 214 215 213 211 207 210 211 213 210 208 207
214 215 216 171 169 208 199 178 170 185 51 142 205 183 110 55 120 123 176 29 97 200 254 164 227 258 70 275 214 214 225 233 238 241 193 237 256 254 250 246 238 235 232 230 227 227 216 208 213 219 222 214 206 204 203 202 198 198 200 200 204 208 211 213 209 212 212 211 211 212 212 211 210 211 214 215 216 210 205 211 211 208 207 210 203 198
131 228 230 286 176 167 38 133 183 345 301 197 187 159 159 195 177 257 132 210 168 220 243 261 222 249 194 234 43 195 215 235 248 261 252 251 250 248 251 255 251 257 263 255 243 237 237 231 233 229 226 230 228 220 211 206 195 202 209 207 204 207 210 211 210 213 219 214 214 214 214 212 212 212 213 215 214 203 207 211 211 209 211 201 196 195
69 239 318 319 165 205 147 176 182 183 248 290 100 170 191 116 202 166 192 114 170 229 231 265 150 243 202 219 182 239 202 221 228 241 240 229 223 227 234 246 250 243 228 226 225 227 231 237 230 224 224 228 227 226 231 220 206 206 209 203 212 221 218 212 209 207 211 211 212 215 215 216 215 213 212 211 205 206 210 212 209 210 206 203 186 196
216 149 248 300 300 168 188 195 190 176 176 169 164 177 196 198 267 100 183 165 155 187 217 265 266 264 254 192 177 216 219 227 235 244 222 224 226 226 229 229 235 229 216 212 204 208 218 225 230 233 243 247 266 277 237 202 203 206 198 217 217 210 214 210 212 208 214 210 214 214 213 215 214 216 214 212 207 211 214 215 210 210 207 175 198 191
168 184 206 284 238 223 202 194 207 188 174 179 176 185 182 155 134 176 221 151 139 112 219 202 254 263 266 200 194 203 212 215 222 227 236 219 231 223 224 236 218 200 211 190 197 195 204 220 233 250 333 15 103 245 225 253 216 208 204 204 199 210 222 218 222 221 228 231 230 222 223 222 212 210 208 210 212 217 217 217 212 204 184 198 199 189
165 128 126 207 256 217 259 317 316 180 199 203 184 192 172 148 135 174 195 210 176 224 207 170 334 263 172 187 198 202 214 217 221 204 217 219 227 211 210 195 196 177 180 205 213 218 217 212 212 207 206 210 214 225 234 248 236 233 234 232 227 209 223 203 227 246 235 231 234 236 238 228 219 212 208 210 214 217 215 215 208 194 198 201 197 197
72 114 153 296 340 319 306 304 350 358 166 249 322 61 169 184 179 188 195 176 191 159 230 252 248 266 229 211 174 178 205 214 218 199 205 201 185 191 171 187 189 202 235 238 234 234 222 213 215 201 218 229 239 238 239 245 258 272 281 281 286 266 270 251 226 210 195 233 232 228 211 211 215 206 207 211 212 213 210 207 204 197 202 200 190 193
183 202 156 150 162 342 332 315 257 336 163 207 186 196 190 184 195 188 87 108 195 204 210 185 236 256 197 194 172 161 153 153 162 186 156 160 200 182 185 196 203 204 203 218 221 225 234 235 222 223 221 223 230 233 231 230 231 234 245 251 248 252 255 253 261 236 213 182 204 221 199 206 194 196 203 207 207 211 207 207 202 196 197 186 192 192
184 152 162 187 184 188 199 201 189 174 200 190 200 192 194 185 187 173 203 169 213 207 197 206 238 242 110 282 244 213 184 183 244 237 232 175 176 186 197 195 203 202 207 211 225 232 223 220 223 231 231 229 223 215 212 214 214 220 228 232 222 224 228 232 220 205 188 170 187 210 214 220 204 206 213 216 217 213 207 202 199 196 197 186 187 182
164 151 192 204 205 210 213 221 323 85 110 184 180 196 200 202 195 195 188 204 217 200 206 216 229 260 248 246 220 224 222 208 223 252 211 217 234 233 201 193 198 204 210 214 213 215 234 253 236 229 228 225 222 212 208 204 209 213 219 228 224 207 200 207 179 177 176 181 192 206 228 231 236 236 239 235 236 236 213 206 203 190 196 190 183 178
96 180 202 206 228 237 52 218 189 158 183 191 187 200 198 193 187 191 192 214 197 211 241 197 233 241 253 244 220 233 239 239 235 221 220 222 214 199 210 210 225 247 252 249 255 241 225 230 240 238 232 222 221 211 212 207 205 205 205 216 219 208 185 187 155 164 171 176 199 209 221 222 226 226 227 235 234 222 211 202 206 207 197 182 181 185
148 203 202 195 224 228 253 289 173 176 204 203 201 195 194 191 187 197 211 217 196 208 224 221 217 236 251 249 231 212 207 213 224 226 223 211 210 218 197 207 219 227 237 239 240 235 230 232 232 227 222 219 205 208 213 212 218 217 220 215 209 196 195 179 155 163 173 195 218 228 220 220 221 220 224 232 237 236 232 222 214 212 197 189 193 187
126 228 190 194 222 224 226 248 266 189 202 208 209 206 200 193 198 202 212 217 211 219 230 242 232 234 242 248 240 199 202 213 221 220 223 220 223 206 210 215 219 229 230 231 233 232 223 224 230 226 208 204 205 206 206 209 210 206 204 207 202 193 200 150 168 180 213 218 224 224 223 217 209 222 224 213 223 233 213 203 187 162 180 206 203 186
157 209 172 184 218 223 219 227 266 250 199 209 209 207 200 198 201 206 212 219 219 233 237 239 240 242 247 251 245 189 203 200 211 218 221 216 211 207 205 211 219 226 229 230 235 236 223 222 229 227 203 207 202 206 203 206 204 198 203 203 196 192 188 163 183 200 213 230 232 242 257 258 263 70 224 241 238 283 264 211 174 183 194 198 191 189
182 258 145 168 205 228 208 208 223 250 237 217 210 203 198 194 204 207 214 213 204 214 221 234 245 255 255 248 169 217 175 190 204 209 214 223 215 208 205 210 215 222 224 227 231 231 217 219 221 213 211 207 207 204 204 204 201 189 206 197 196 191 172 180 190 196 207 215 211 215 212 218 210 200 209 104 119 117 87 89 91 153 168 163 175 175
171 155 176 169 207 229 203 195 203 207 228 229 212 200 196 200 203 206 215 216 214 211 219 220 232 234 244 98 186 223 202 214 201 196 213 222 216 211 210 212 216 220 221 221 225 223 213 212 210 205 212 206 203 203 210 192 178 203 202 194 195 166 181 192 191 193 200 197 196 203 197 190 191 202 184 172 145 127 109 123 124 132 143 184 186 130
154 166 181 186 213 230 196 185 194 198 210 215 201 199 194 197 202 206 215 218 217 208 221 220 230 238 216 212 188 216 206 220 215 217 215 220 224 222 223 216 216 219 219 220 220 214 214 213 212 211 206 203 205 203 194 182 192 203 192 182 167 176 186 185 191 191 193 184 186 187 190 183 179 182 185 165 149 139 136 143 168 158 140 121 124 154
134 181 201 156 223 242 140 162 198 217 220 229 212 188 195 202 198 205 214 215 213 213 225 234 239 246 231 245 225 220 209 219 215 216 222 224 214 212 218 221 223 223 219 219 218 209 210 207 207 211 219 225 213 196 169 197 203 167 157 165 174 182 177 184 183 191 184 183 184 184 185 179 177 176 163 157 149 145 153 156 142 142 152 160 165 172
151 178 190 227 193 300 198 179 215 228 209 284 139 174 194 196 209 212 237 233 219 213 214 227 237 243 235 237 237 221 209 233 249 238 224 209 199 206 211 216 220 218 219 217 205 208 203 203 202 202 213 211 167 181 185 192 177 164 178 164 171 174 181 177 183 189 181 185 185 186 183 176 177 169 162 158 155 156 160 165 171 170 162 147 144 137
162 116 185 305 190 235 163 214 225 12 32 189 165 185 157 192 199 194 214 230 218 213 214 231 241 241 235 235 237 223 262 347 284 256 215 212 211 208 201 213 219 216 218 217 199 205 201 198 197 206 193 165 183 173 198 181 167 163 153 167 175 170 178 180 188 189 185 187 184 184 180 180 173 171 169 166 164 170 170 167 162 148 141 144 158 163
164 198 158 219 239 204 251 236 228 231 223 211 222 182 192 199 197 198 207 249 202 207 211 221 235 240 236 239 238 208 68 297 264 258 212 188 206 215 225 231 233 229 213 204 205 210 205 208 208 200 177 182 184 193 179 168 166 159 164 174 170 171 181 188 199 187 184 187 182 179 177 178 171 169 170 168 176 178 174 154 141 154 158 162 167 174
185 177 174 180 262 315 232 241 248 232 239 221 211 192 205 198 139 92 178 254 222 196 208 217 231 237 231 230 211 134 169 235 248 253 141 175 192 205 220 228 229 230 216 195 189 203 209 209 200 194 181 172 185 206 182 171 158 157 174 175 178 181 186 199 193 183 183 179 171 171 169 170 168 166 167 175 181 168 161 165 157 133 130 119 112 114
142 161 155 204 225 242 271 273 261 193 267 267 195 192 192 118 123 120 201 244 237 194 207 211 228 234 228 225 168 182 208 232 241 251 156 176 183 208 213 220 225 230 231 216 213 205 200 187 141 137 169 176 203 185 166 161 162 173 176 180 170 185 203 198 179 168 161 158 160 164 164 164 164 162 167 168 146 126 118 106 104 114 120 110 120 119
187 187 193 212 213 232 227 255 275 272 262 249 230 224 141 145 138 177 203 233 259 157 207 209 230 233 224 217 183 213 223 225 238 125 182 177 198 215 211 217 219 217 221 214 217 203 177 178 177 176 183 196 183 160 168 162 163 183 181 167 173 204 199 171 163 163 163 157 157 159 163 162 166 161 152 140 133 125 120 127 128 129 128 123 115 113
199 182 204 198 217 219 222 230 243 273 246 225 211 149 163 139 197 194 221 227 109 169 186 202 219 224 208 212 208 220 233 232 236 218 196 190 200 212 201 212 213 217 220 216 205 178 186 178 191 188 194 184 164 170 165 166 175 181 171 172 203 201 150 160 162 157 156 158 157 158 157 157 150 144 141 137 137 139 141 145 146 147 146 141 141 139
179 177 186 187 196 213 209 222 229 241 256 187 159 155 191 184 204 217 229 336 289 181 190 202 211 219 203 219 217 223 233 238 236 231 223 212 221 217 203 202 201 200 206 202 202 208 180 180 184 191 192 179 170 167 170 164 174 178 178 198 201 151 158 155 157 156 156 154 156 156 155 153 150 149 150 154 156 151 151 153 150 149 143 144 143 143
169 198 183 202 179 186 196 207 221 218 261 127 159 191 200 208 207 220 15 254 294 160 155 201 221 216 210 217 222 230 233 236 242 238 226 218 229 225 207 203 202 201 202 206 200 187 179 183 181 176 178 176 174 172 170 171 175 180 186 204 145 150 148 153 151 150 150 153 155 153 153 154 153 153 154 153 147 138 137 143 138 131 132 130 134 138
167 210 171 220 179 202 201 214 221 234 241 200 212 236 185 217 243 206 220 220 224 239 207 188 210 213 217 221 228 230 232 229 232 228 207 217 221 215 198 199 196 196 193 190 193 181 177 172 172 162 167 189 186 185 180 180 173 174 190 182 151 153 156 150 147 145 149 152 154 153 150 145 144 144 143 146 145 142 142 139 144 137 133 134 131 138
186 203 192 231 238 277 261 233 271 272 251 254 245 250 237 214 230 239 234 243 248 234 185 202 209 206 217 220 222 233 229 232 231 219 205 210 209 211 201 193 201 196 188 170 150 173 172 151 146 156 172 191 200 190 188 185 171 175 186 151 155 152 150 146 146 149 150 149 147 146 141 135 134 139 144 150 153 153 157 156 156 151 150 151 152 153
265 220 203 220 167 201 237 201 242 244 242 247 248 231 246 251 254 256 255 243 245 247 256 271 250 242 232 240 231 235 235 224 214 207 196 199 206 199 187 189 190 184 178 187 189 153 144 151 156 171 174 183 199 192 188 177 175 157 138 152 148 147 144 144 144 141 142 142 142 140 144 141 144 144 146 148 143 143 150 150 150 149 155 162 158 160
262 181 224 212 208 214 234 216 221 233 238 246 245 222 231 241 246 248 254 280 282 268 227 233 221 248 248 256 245 238 247 220 203 202 196 200 202 193 191 191 189 192 213 187 161 166 153 163 168 173 175 186 189 183 171 165 157 151 146 144 147 143 141 143 148 148 147 146 146 148 149 145 145 146 147 152 147 143 143 148 150 153 162 172 169 164
208 162 223 174 227 232 239 244 240 258 268 257 251 238 231 216 218 277 260 269 279 291 275 262 202 233 231 234 237 225 228 220 205 199 192 201 198 193 196 195 193 189 169 157 176 172 171 171 173 176 176 178 173 164 160 159 154 154 150 150 147 145 142 146 144 144 145 146 147 148 146 142 150 147 143 139 130 112 132 158 166 160 144 83 140 166
189 226 181 188 234 224 223 235 227 240 253 248 240 244 228 179 202 234 244 248 245 245 247 254 267 244 234 245 230 211 212 216 207 192 197 199 199 199 193 186 178 169 178 179 164 175 169 172 164 166 171 167 164 158 154 155 155 155 152 148 149 145 145 146 145 148 153 153 150 148 143 143 144 145 143 143 140 129 83 53 102 148 153 156 146 128
221 217 205 227 227 234 223 233 230 223 242 246 255 180 186 196 208 229 236 238 239 234 226 216 236 263 259 248 219 201 213 210 208 192 197 197 207 196 183 169 164 172 174 166 158 172 169 166 163 158 160 164 161 158 156 154 159 156 157 153 152 148 145 147 147 152 152 156 160 156 149 146 145 148 145 147 146 142 133 110 51 60 116 152 153 152